Time,TemperatureF,DewpointF,PressureIn,WindDirection,WindDirectionDegrees,WindSpeedMPH,WindSpeedGustMPH,Humidity,HourlyPrecipIn,Conditions,Clouds,dailyrainin,SoftwareType,DateUTC
2013-12-14 00:12:00,25.0,21.0,30.34,WSW,240,0.0,0.0,85,0.00,,,0.08,,2013-12-14 05:12:00,
2013-12-14 00:22:00,25.0,21.0,30.34,WSW,240,0.0,0.0,86,0.00,,,0.00,,2013-12-14 05:22:00,
2013-12-14 00:42:00,25.0,21.0,30.35,WSW,240,0.0,0.0,86,0.00,,,0.00,,2013-12-14 05:42:00,
2013-12-14 00:52:00,25.0,21.0,30.35,WSW,240,0.0,0.0,85,0.00,,,0.00,,2013-12-14 05:52:00,
2013-12-14 01:12:00,25.0,21.0,30.36,WSW,240,0.0,0.0,86,0.00,,,0.00,,2013-12-14 06:12:00,
2013-12-14 01:22:00,25.0,21.0,30.36,WSW,240,0.0,0.0,86,0.00,,,0.00,,2013-12-14 06:22:00,
2013-12-14 01:42:00,26.0,22.0,30.37,WSW,240,0.0,0.0,84,0.00,,,0.00,,2013-12-14 06:42:00,
2013-12-14 01:52:00,26.0,21.0,30.37,WSW,240,0.0,0.0,81,0.00,,,0.00,,2013-12-14 06:52:00,
2013-12-14 02:23:00,26.0,20.0,30.37,WSW,240,0.0,0.0,79,0.00,,,0.00,,2013-12-14 07:23:00,
2013-12-14 02:42:00,26.0,20.0,30.39,WSW,240,0.0,0.0,78,0.00,,,0.00,,2013-12-14 07:42:00,
2013-12-14 02:52:00,26.0,20.0,30.39,WSW,240,0.0,0.0,79,0.00,,,0.00,,2013-12-14 07:52:00,
2013-12-14 03:22:00,25.0,19.0,30.40,WSW,240,0.0,0.0,78,0.00,,,0.00,,2013-12-14 08:22:00,
2013-12-14 03:42:00,25.0,19.0,30.39,WSW,240,0.0,0.0,78,0.00,,,0.00,,2013-12-14 08:42:00,
2013-12-14 03:52:00,25.0,19.0,30.39,WSW,240,0.0,0.0,78,0.00,,,0.00,,2013-12-14 08:52:00,
2013-12-14 04:22:00,25.0,20.0,30.40,WSW,240,0.0,0.0,80,0.00,,,0.00,,2013-12-14 09:22:00,
2013-12-14 04:43:00,25.0,20.0,30.40,WSW,240,0.0,0.0,82,0.00,,,0.00,,2013-12-14 09:43:00,
2013-12-14 04:54:00,25.0,21.0,30.40,WSW,240,0.0,0.0,83,0.00,,,0.00,,2013-12-14 09:54:00,
2013-12-14 05:23:00,24.0,20.0,30.42,WSW,240,0.0,0.0,84,0.00,,,0.00,,2013-12-14 10:23:00,
2013-12-14 05:43:00,24.0,20.0,30.41,WSW,240,0.0,0.0,86,0.00,,,0.00,,2013-12-14 10:43:00,
2013-12-14 05:53:00,24.0,20.0,30.42,WSW,240,0.0,0.0,86,0.00,,,0.00,,2013-12-14 10:53:00,
2013-12-14 06:11:00,23.0,20.0,30.43,WSW,240,0.0,0.0,87,0.00,,,0.00,,2013-12-14 11:11:00,
2013-12-14 06:23:00,23.0,20.0,30.43,WSW,240,0.0,0.0,88,0.00,,,0.00,,2013-12-14 11:23:00,
2013-12-14 06:42:00,23.0,21.0,30.44,WSW,240,0.0,0.0,90,0.00,,,0.00,,2013-12-14 11:42:00,
2013-12-14 06:52:00,23.0,21.0,30.44,WSW,240,0.0,0.0,91,0.00,,,0.00,,2013-12-14 11:52:00,
2013-12-14 07:12:00,23.0,21.0,30.44,WSW,240,0.0,0.0,92,0.00,,,0.00,,2013-12-14 12:12:00,
2013-12-14 07:22:00,22.0,20.0,30.45,WSW,240,0.0,0.0,93,0.00,,,0.00,,2013-12-14 12:22:00,
2013-12-14 07:42:00,22.0,20.0,30.46,WSW,240,0.0,0.0,93,0.00,,,0.00,,2013-12-14 12:42:00,
2013-12-14 07:52:00,22.0,20.0,30.46,WSW,240,0.0,0.0,93,0.00,,,0.00,,2013-12-14 12:52:00,
2013-12-14 08:11:00,21.0,20.0,30.47,WSW,240,0.0,0.0,94,0.00,,,0.00,,2013-12-14 13:11:00,
2013-12-14 08:22:00,22.0,21.0,30.47,WSW,240,0.0,0.0,94,0.00,,,0.00,,2013-12-14 13:22:00,
2013-12-14 08:42:00,22.0,20.0,30.48,WSW,240,0.0,0.0,93,0.00,,,0.00,,2013-12-14 13:42:00,
2013-12-14 08:52:00,22.0,20.0,30.48,WSW,240,0.0,0.0,93,0.00,,,0.00,,2013-12-14 13:52:00,
2013-12-14 09:11:00,22.0,20.0,30.48,WSW,240,0.0,0.0,92,0.00,,,0.00,,2013-12-14 14:11:00,
2013-12-14 09:22:00,22.0,20.0,30.48,WSW,240,0.0,0.0,92,0.00,,,0.00,,2013-12-14 14:22:00,
2013-12-14 09:42:00,22.0,20.0,30.49,WSW,240,0.0,0.0,92,0.00,,,0.00,,2013-12-14 14:42:00,
2013-12-14 09:52:00,22.0,20.0,30.50,WSW,240,0.0,0.0,92,0.00,,,0.00,,2013-12-14 14:52:00,
2013-12-14 10:11:00,22.0,20.0,30.50,WSW,240,0.0,0.0,92,0.00,,,0.00,,2013-12-14 15:11:00,
2013-12-14 10:22:00,22.0,20.0,30.50,WSW,240,0.0,0.0,92,0.00,,,0.00,,2013-12-14 15:22:00,
2013-12-14 10:44:00,22.0,20.0,30.50,WSW,240,0.0,0.0,91,0.00,,,0.00,,2013-12-14 15:44:00,
2013-12-14 10:53:00,23.0,21.0,30.50,WSW,240,0.0,0.0,91,0.00,,,0.00,,2013-12-14 15:53:00,
2013-12-14 11:13:00,23.0,21.0,30.50,WSW,240,0.0,0.0,91,0.00,,,0.00,,2013-12-14 16:13:00,
2013-12-14 11:23:00,23.0,21.0,30.49,WSW,240,0.0,0.0,90,0.00,,,0.00,,2013-12-14 16:23:00,
2013-12-14 11:43:00,23.0,21.0,30.47,WSW,240,0.0,0.0,91,0.00,,,0.00,,2013-12-14 16:43:00,
2013-12-14 11:52:00,23.0,21.0,30.46,WSW,240,0.0,0.0,90,0.00,,,0.00,,2013-12-14 16:52:00,
2013-12-14 12:12:00,23.0,21.0,30.45,WSW,240,0.0,0.0,90,0.00,,,0.00,,2013-12-14 17:12:00,
2013-12-14 12:23:00,23.0,21.0,30.44,WSW,240,0.0,0.0,90,0.00,,,0.00,,2013-12-14 17:23:00,
2013-12-14 12:42:00,24.0,21.0,30.43,WSW,240,0.0,0.0,89,0.00,,,0.00,,2013-12-14 17:42:00,
2013-12-14 12:53:00,24.0,21.0,30.42,WSW,240,0.0,0.0,89,0.00,,,0.00,,2013-12-14 17:53:00,
2013-12-14 13:12:00,23.0,21.0,30.41,WSW,240,0.0,0.0,91,0.00,,,0.00,,2013-12-14 18:12:00,
2013-12-14 13:22:00,23.0,21.0,30.41,WSW,240,0.0,0.0,91,0.00,,,0.00,,2013-12-14 18:22:00,
2013-12-14 13:42:00,23.0,21.0,30.40,WSW,240,0.0,0.0,90,0.00,,,0.00,,2013-12-14 18:42:00,
2013-12-14 13:52:00,23.0,21.0,30.39,WSW,240,0.0,0.0,91,0.00,,,0.00,,2013-12-14 18:52:00,
2013-12-14 14:12:00,23.0,21.0,30.38,WSW,240,0.0,0.0,92,0.00,,,0.00,,2013-12-14 19:12:00,
2013-12-14 14:22:00,22.0,20.0,30.38,WSW,240,0.0,0.0,93,0.00,,,0.00,,2013-12-14 19:22:00,
2013-12-14 14:42:00,22.0,20.0,30.37,WSW,240,0.0,0.0,93,0.00,,,0.00,,2013-12-14 19:42:00,
2013-12-14 14:52:00,22.0,21.0,30.37,WSW,240,0.0,0.0,94,0.00,,,0.00,,2013-12-14 19:52:00,
2013-12-14 15:11:00,21.0,20.0,30.36,WSW,240,0.0,0.0,94,0.00,,,0.00,,2013-12-14 20:11:00,
2013-12-14 15:22:00,21.0,20.0,30.36,WSW,240,0.0,0.0,95,0.00,,,0.00,,2013-12-14 20:22:00,
2013-12-14 15:42:00,21.0,20.0,30.35,WSW,240,0.0,0.0,95,0.00,,,0.00,,2013-12-14 20:42:00,
2013-12-14 15:54:00,21.0,20.0,30.35,WSW,240,0.0,0.0,95,0.00,,,0.00,,2013-12-14 20:54:00,
2013-12-14 16:11:00,20.0,19.0,30.35,WSW,240,0.0,0.0,95,0.00,,,0.00,,2013-12-14 21:11:00,
2013-12-14 16:22:00,20.0,19.0,30.35,WSW,240,0.0,0.0,95,0.00,,,0.00,,2013-12-14 21:22:00,
2013-12-14 16:44:00,20.0,19.0,30.33,WSW,240,0.0,0.0,96,0.00,,,0.00,,2013-12-14 21:44:00,
2013-12-14 16:54:00,19.0,18.0,30.33,WSW,240,0.0,0.0,96,0.00,,,0.00,,2013-12-14 21:54:00,
2013-12-14 17:13:00,19.0,18.0,30.30,WSW,240,0.0,0.0,96,0.00,,,0.00,,2013-12-14 22:13:00,
2013-12-14 17:23:00,19.0,18.0,30.29,WSW,240,0.0,0.0,96,0.00,,,0.00,,2013-12-14 22:23:00,
2013-12-14 17:43:00,18.0,17.0,30.29,WSW,240,0.0,0.0,96,0.00,,,0.00,,2013-12-14 22:43:00,
2013-12-14 17:52:00,18.0,17.0,30.28,WSW,240,0.0,0.0,96,0.00,,,0.00,,2013-12-14 22:52:00,
2013-12-14 18:12:00,18.0,17.0,30.28,WSW,240,0.0,0.0,96,0.00,,,0.00,,2013-12-14 23:12:00,
2013-12-14 18:22:00,18.0,17.0,30.26,WSW,240,0.0,0.0,96,0.00,,,0.00,,2013-12-14 23:22:00,
2013-12-14 18:43:00,18.0,17.0,30.25,WSW,240,0.0,0.0,96,0.00,,,0.00,,2013-12-14 23:43:00,
2013-12-14 18:53:00,18.0,17.0,30.24,WSW,240,0.0,0.0,96,0.00,,,0.00,,2013-12-14 23:53:00,
2013-12-14 19:11:00,18.0,17.0,30.24,WSW,240,0.0,0.0,97,0.00,,,0.00,,2013-12-15 00:11:00,
2013-12-14 19:23:00,17.0,16.0,30.23,WSW,240,0.0,0.0,97,0.00,,,0.00,,2013-12-15 00:23:00,
2013-12-14 19:42:00,18.0,17.0,30.21,WSW,240,0.0,0.0,97,0.00,,,0.00,,2013-12-15 00:42:00,
2013-12-14 19:52:00,17.0,16.0,30.20,WSW,240,0.0,0.0,97,0.00,,,0.00,,2013-12-15 00:52:00,
2013-12-14 20:12:00,18.0,17.0,30.19,WSW,240,0.0,0.0,97,0.00,,,0.00,,2013-12-15 01:12:00,
2013-12-14 20:21:00,18.0,17.0,30.18,WSW,240,0.0,0.0,97,0.00,,,0.00,,2013-12-15 01:21:00,
2013-12-14 20:42:00,18.0,18.0,30.16,WSW,240,0.0,0.0,98,0.00,,,0.00,,2013-12-15 01:42:00,
2013-12-14 20:52:00,18.0,18.0,30.13,WSW,240,0.0,0.0,98,0.00,,,0.00,,2013-12-15 01:52:00,
2013-12-14 21:11:00,18.0,18.0,30.11,WSW,240,0.0,0.0,98,0.00,,,0.00,,2013-12-15 02:11:00,
2013-12-14 21:22:00,19.0,19.0,30.10,WSW,240,0.0,0.0,98,0.00,,,0.00,,2013-12-15 02:22:00,
2013-12-14 21:42:00,19.0,19.0,30.08,WSW,240,0.0,0.0,98,0.00,,,0.00,,2013-12-15 02:42:00,
2013-12-14 21:52:00,19.0,19.0,30.07,WSW,240,0.0,0.0,98,0.00,,,0.00,,2013-12-15 02:52:00,
2013-12-14 22:12:00,20.0,20.0,30.05,WSW,240,0.0,0.0,98,0.00,,,0.00,,2013-12-15 03:12:00,
2013-12-14 22:22:00,20.0,20.0,30.03,WSW,240,0.0,0.0,98,0.00,,,0.00,,2013-12-15 03:22:00,
2013-12-14 22:43:00,21.0,21.0,30.00,WSW,240,0.0,0.0,98,0.00,,,0.00,,2013-12-15 03:43:00,
2013-12-14 22:54:00,21.0,21.0,29.98,WSW,240,0.0,0.0,98,0.00,,,0.00,,2013-12-15 03:54:00,
2013-12-14 23:03:00,-999.0,-99.9,29.95,WSW,240,0.0,0.0,-999,0.00,,,0.00,,2013-12-15 04:03:00,
2013-12-14 23:13:00,22.0,22.0,29.95,WSW,240,0.0,0.0,98,0.00,,,0.00,,2013-12-15 04:13:00,
2013-12-14 23:23:00,22.0,22.0,29.93,WSW,240,0.0,0.0,98,0.00,,,0.00,,2013-12-15 04:23:00,
2013-12-14 23:43:00,23.0,23.0,29.90,WSW,240,0.0,0.0,98,0.00,,,0.00,,2013-12-15 04:43:00,
2013-12-14 23:53:00,23.0,23.0,29.89,WSW,240,0.0,0.0,99,0.00,,,0.00,,2013-12-15 04:53:00,